Tracking 21076 objects as of 10-Aug-2020
HD Live streaming from Space Station
objects crossing your sky now
Track the most recent launched group of Starlink satellites

ARIANE 1 DEB

Track ARIANE 1 DEB now!


NORAD ID: 28557
Int'l Code: 1979-104W
Perigee: 640.6 km
Apogee: 40,335.8 km
Inclination: 19.8 °
Period: 730.1 minutes
Semi major axis: 26859 km
RCS: 0.0796 m2 (small)
Launch date: December 24, 1979
Source: European Space Agency (ESA)
Launch site: FRENCH GUIANA (FRGUI)

Note: This is SATELLITE DEBRIS
aabbcc
Your satellite tracking list
Your tracking list is empty




NASA's NSSDC Master Catalog

Two Line Element Set (TLE):
1 28557U 79104W   19166.25968063 +.00000178 +00000-0 -29747-2 0  9998
2 28557 019.7984 063.9773 7389490 252.7543 342.7691 01.97225300124301
Source of the keplerian elements: AFSPC